Location: Eymir
(36.7333°N, 29.7833°E)
Time: 05:17:12
(UTC+00:00)

CUTE 1.7 + AOD 2 - Pass Details

Date: 24 May 2026
Orbit: 531 x 545 km, 97.8° (Epoch: 8 June)

Event Time Altitude Azimuth Distance (km) Brightness Sun altitude
Rises 01:45:36 0° 28° (NNE) 2,679 ? -11.3°
Reaches altitude 10° 01:48:06 10° 44° (NE) 1,784 ? -10.9°
Maximum altitude 01:51:07 22° 96° (E) 1,200 ? -10.4°
Drops below altitude 10° 01:54:08 10° 148° (SSE) 1,777 ? -10.0°
Sets 01:56:36 0° 164° (SSE) 2,664 ? -9.6°
